TimeEST,TemperatureF,Dew PointF,Humidity,Sea Level PressureIn,VisibilityMPH,Wind Direction,Wind SpeedMPH,Gust SpeedMPH,PrecipitationIn,Events,Conditions,WindDirDegrees,DateUTC
12:52 AM,21.0,10.0,63,30.58,10.0,North,16.1,24.2,N/A,,Partly Cloudy,360,2013-11-24 05:52:00
1:52 AM,21.0,10.9,65,30.59,10.0,North,12.7,-,N/A,,Scattered Clouds,350,2013-11-24 06:52:00
2:52 AM,19.9,7.0,57,30.60,10.0,North,10.4,-,N/A,,Clear,350,2013-11-24 07:52:00
3:52 AM,19.0,6.1,57,30.60,10.0,North,10.4,-,N/A,,Scattered Clouds,10,2013-11-24 08:52:00
4:52 AM,18.0,6.1,60,30.60,10.0,North,6.9,-,N/A,,Clear,360,2013-11-24 09:52:00
5:52 AM,18.0,6.1,60,30.62,10.0,North,5.8,-,N/A,,Clear,350,2013-11-24 10:52:00
7:52 AM,15.1,9.0,77,30.65,10.0,Calm,Calm,-,N/A,,Scattered Clouds,0,2013-11-24 12:52:00
8:52 AM,19.9,10.9,68,30.69,10.0,Calm,Calm,-,N/A,,Mostly Cloudy,0,2013-11-24 13:52:00
9:52 AM,23.0,12.0,63,30.71,10.0,Variable,3.5,-,N/A,,Mostly Cloudy,0,2013-11-24 14:52:00
10:52 AM,25.0,15.1,66,30.70,9.0,Variable,3.5,-,0.00,,Mostly Cloudy,0,2013-11-24 15:52:00
11:13 AM,23.0,14.0,68,30.66,8.0,WNW,9.2,-,0.00,Snow,Light Snow,290,2013-11-24 16:13:00
11:52 AM,24.1,12.9,62,30.68,10.0,WNW,5.8,-,0.00,Snow,Light Snow,300,2013-11-24 16:52:00
12:52 PM,25.0,10.0,53,30.66,10.0,NNW,5.8,-,0.00,,Mostly Cloudy,340,2013-11-24 17:52:00
1:52 PM,27.0,9.0,47,30.62,10.0,NW,9.2,-,N/A,,Scattered Clouds,320,2013-11-24 18:52:00
2:52 PM,27.0,8.1,45,30.61,10.0,Calm,Calm,-,0.00,,Scattered Clouds,0,2013-11-24 19:52:00
3:52 PM,27.0,9.0,47,30.60,10.0,North,4.6,-,0.00,,Scattered Clouds,350,2013-11-24 20:52:00
4:52 PM,25.0,8.1,49,30.59,10.0,Calm,Calm,-,N/A,,Scattered Clouds,0,2013-11-24 21:52:00
5:52 PM,25.0,8.1,49,30.58,10.0,Calm,Calm,-,N/A,,Scattered Clouds,0,2013-11-24 22:52:00
6:52 PM,25.0,8.1,49,30.59,10.0,Calm,Calm,-,N/A,,Scattered Clouds,0,2013-11-24 23:52:00
7:52 PM,21.9,10.9,63,30.59,10.0,Calm,Calm,-,N/A,,Partly Cloudy,0,2013-11-25 00:52:00
8:52 PM,19.0,12.0,74,30.58,10.0,Calm,Calm,-,N/A,,Clear,0,2013-11-25 01:52:00
9:52 PM,19.0,10.0,68,30.56,10.0,Calm,Calm,-,N/A,,Clear,0,2013-11-25 02:52:00
10:52 PM,19.9,12.9,74,30.54,10.0,Calm,Calm,-,N/A,,Clear,0,2013-11-25 03:52:00
11:52 PM,19.9,10.9,68,30.54,10.0,South,3.5,-,N/A,,Mostly Cloudy,170,2013-11-25 04:52:00